Weather History for Port Angeles, WA

Change the Weather History Date:

Tuesday, December 17, 2013

  Actual Average Record
Temperature  
Mean Temperature 39 °F -  
Max Temperature 46 °F 45 °F 55 °F (1990)
Min Temperature 32 °F 36 °F 8 °F (1964)
Degree Days  
Heating Degree Days 26    
Moisture  
Dew Point 36 °F    
Average Humidity 89    
Maximum Humidity 100    
Minimum Humidity 82    
Precipitation  
Precipitation 0.00 in - - ()
Sea Level Pressure  
Sea Level Pressure 30.15 in    
Wind  
Wind Speed 4 mph (West)    
Max Wind Speed 15 mph    
Max Gust Speed -    
Visibility 10 miles    
Events      
Averages and records for this station are not official NWS values.
T = Trace of Precipitation, MM = Missing Value Source: NWS Daily Summary

Daily Weather History Graph

Daily Weather History Graph

Search for Another Location

Airport:

Trip Planner

Search our weather history database for the weather conditions in past years. The results will help you decide how hot, cold, wet, or windy it might be!

Date:

Astronomy

Dec. 17, 2013 Rise Set
Actual Time 7:59 AM PST 4:21 PM PST
Civil Twilight 7:22 AM PST 4:57 PM PST
Nautical Twilight 6:43 AM PST 5:37 PM PST
Astronomical Twilight 6:05 AM PST 6:15 PM PST
Moon 5:10 PM PST (12/17) 7:55 AM PST (12/17)
Length of Visible Light 9h 35m
Length of Day
8h 21m
Full, 100% of the Moon is Illuminated
Dec 17
Full
Dec 25
Last Quarter
Jan 1
New
Jan 7
First Quarter
Jan 15
Full

Hourly Weather History & Observations

Time (PST) Temp. Windchill Dew Point Humidity Pressure Visibility Wind Dir Wind Speed Gust Speed Precip Events Conditions
12:23 AM 33.1 °F 30.0 °F 30.9 °F 92% 30.26 in 10.0 mi WSW 3.5 mph - N/A   Scattered Clouds
12:53 AM 33.1 °F 30.0 °F 30.0 °F 89% 30.26 in 10.0 mi West 3.5 mph - N/A   Clear
1:29 AM 34.0 °F 27.2 °F 32.0 °F 92% 30.25 in 10.0 mi SW 8.1 mph - N/A   Partly Cloudy
1:53 AM 32.0 °F - 28.9 °F 88% 30.25 in 10.0 mi Calm Calm - N/A   Clear
2:03 AM 32.0 °F - 30.0 °F 92% 30.24 in 10.0 mi North - - N/A   Scattered Clouds
2:11 AM 35.1 °F - 32.0 °F 89% 30.24 in 10.0 mi North - - N/A   Mostly Cloudy
2:53 AM 36.0 °F - 33.1 °F 89% 30.25 in 10.0 mi North - - N/A   Overcast
3:53 AM 34.0 °F - 32.0 °F 92% 30.22 in 10.0 mi North - - N/A   Overcast
4:33 AM 34.0 °F - 32.0 °F 92% 30.19 in 10.0 mi North - - N/A   Scattered Clouds
4:53 AM 33.1 °F - 30.0 °F 89% 30.20 in 10.0 mi North - - N/A   Scattered Clouds
5:53 AM 34.0 °F - 32.0 °F 92% 30.19 in 10.0 mi North - - N/A   Overcast
6:53 AM 35.1 °F - 32.0 °F 89% 30.19 in 10.0 mi North - - N/A   Mostly Cloudy
7:53 AM 34.0 °F 31.0 °F 32.0 °F 92% 30.17 in 10.0 mi Variable 3.5 mph - N/A   Mostly Cloudy
8:53 AM 36.0 °F - 34.0 °F 93% 30.18 in 10.0 mi North - - N/A   Overcast
9:53 AM 39.9 °F - 37.0 °F 89% 30.19 in 10.0 mi North - - N/A   Overcast
10:53 AM 39.9 °F - 36.0 °F 86% 30.18 in 10.0 mi Calm Calm - 0.00 in   Overcast
11:53 AM 42.1 °F - 37.9 °F 85% 30.16 in 10.0 mi Calm Calm - N/A   Overcast
12:04 PM 43.0 °F 41.3 °F 37.9 °F 82% 30.14 in 10.0 mi SW 3.5 mph - N/A   Overcast
12:53 PM 46.0 °F 44.8 °F 41.0 °F 83% 30.13 in 10.0 mi NW 3.5 mph - N/A   Overcast
1:53 PM 46.0 °F - 41.0 °F 83% 30.10 in 10.0 mi Calm Calm - N/A   Overcast
2:04 PM 46.0 °F 44.8 °F 41.0 °F 83% 30.10 in 10.0 mi NW 3.5 mph - N/A   Overcast
2:43 PM 46.0 °F - 42.1 °F 86% 30.11 in 10.0 mi Calm Calm - N/A   Overcast
2:53 PM 46.0 °F - 41.0 °F 83% 30.12 in 10.0 mi Calm Calm - N/A   Overcast
3:22 PM 43.0 °F - 39.9 °F 89% 30.10 in 10.0 mi Calm Calm - N/A   Scattered Clouds
3:53 PM 42.1 °F - 39.0 °F 89% 30.12 in 10.0 mi Calm Calm - N/A   Clear
4:20 PM 41.0 °F 39.0 °F 39.0 °F 93% 30.11 in 10.0 mi SSW 3.5 mph - N/A   Mostly Cloudy
4:44 PM 39.9 °F - 37.9 °F 93% 30.11 in 10.0 mi Calm Calm - N/A   Overcast
4:53 PM 39.9 °F - 37.9 °F 93% 30.12 in 10.0 mi Calm Calm - N/A   Overcast
5:17 PM 37.9 °F - 37.9 °F 100% 30.11 in 10.0 mi Calm Calm - N/A   Overcast
5:53 PM 39.9 °F - 37.9 °F 93% 30.11 in 10.0 mi Calm Calm - N/A   Overcast
6:13 PM 39.9 °F 36.7 °F 37.9 °F 93% 30.10 in 10.0 mi WSW 4.6 mph - N/A   Overcast
6:53 PM 39.9 °F 36.7 °F 37.9 °F 93% 30.11 in 10.0 mi West 4.6 mph - N/A   Overcast
7:38 PM 41.0 °F 34.7 °F 37.9 °F 89% 30.10 in 10.0 mi WSW 10.4 mph - N/A   Partly Cloudy
7:53 PM 41.0 °F 35.8 °F 37.9 °F 89% 30.11 in 10.0 mi SW 8.1 mph - N/A   Clear
8:53 PM 39.0 °F 33.4 °F 36.0 °F 89% 30.11 in 10.0 mi West 8.1 mph - N/A   Clear
9:53 PM 41.0 °F 34.7 °F 37.9 °F 89% 30.12 in 10.0 mi West 10.4 mph - N/A   Clear
10:08 PM 43.0 °F 36.4 °F 39.9 °F 89% 30.11 in 10.0 mi West 12.7 mph - N/A   Partly Cloudy
10:22 PM 42.1 °F 34.9 °F 39.0 °F 89% 30.11 in 10.0 mi West 13.8 mph - N/A   Mostly Cloudy
10:29 PM 43.0 °F 35.7 °F 39.9 °F 89% 30.10 in 10.0 mi West 15.0 mph - N/A   Mostly Cloudy
10:48 PM 42.8 °F 36.2 °F 39.2 °F 87% 30.10 in 10.0 mi West 12.7 mph - N/A   Partly Cloudy
10:53 PM 42.1 °F 35.2 °F 39.0 °F 89% 30.11 in 10.0 mi West 12.7 mph - N/A   Partly Cloudy
11:12 PM 41.0 °F 34.3 °F 37.9 °F 89% 30.10 in 10.0 mi West 11.5 mph - N/A   Partly Cloudy
11:53 PM 42.1 °F 34.5 °F 39.0 °F 89% 30.11 in 10.0 mi West 15.0 mph - N/A   Clear